Jacksonville, FL

8:19 PM EST on November 23, 2017 (GMT -0500)
Jacksonville International

Weather History for KJAX - January, 2003

Change the Weather History Date:

Wednesday, January 1, 2003

  Actual Average Record
Temperature  
Mean Temperature 62 °F 53 °F  
Max Temperature 70 °F 65 °F 81 °F (1967)
Min Temperature 54 °F 41 °F 21 °F (1918)
Degree Days  
Heating Degree Days 3 12  
Month to date heating degree days 12  
Since 1 July heating degree days 508  
Cooling Degree Days 0 0  
Month to date cooling degree days 0  
Year to date cooling degree days 0  
Growing Degree Days 12 (Base 50)    
Moisture  
Dew Point 56 °F    
Average Humidity 83    
Maximum Humidity 100    
Minimum Humidity 61    
Precipitation  
Precipitation 0.02 in 0.09 in 1.20 in (1881)
Month to date precipitation 0.09  
Year to date precipitation 0.09  
Snow  
Snow 0.00 in 0.00 in 0.00 in (2002)
Month to date snowfall 0.0  
Since 1 July snowfall T  
Snow Depth -    
Sea Level Pressure  
Sea Level Pressure 29.83 in    
Wind  
Wind Speed 12 mph (SW)    
Max Wind Speed 21 mph    
Max Gust Speed 31 mph    
Visibility 10 miles    
Events Rain    
T = Trace of Precipitation, MM = Missing Value Source: NWS Daily Summary

Daily Weather History Graph

Daily Weather History Graph

Search for Another Location

Airport or City:

Trip Planner

Search our weather history database for the weather conditions in past years. The results will help you decide how hot, cold, wet, or windy it might be!

Date:

Astronomy

Jan. 01, 2003 Rise Set
Actual Time 7:23 AM EST 5:36 PM EST
Civil Twilight 6:57 AM EST 6:03 PM EST
Nautical Twilight 6:27 AM EST 6:33 PM EST
Astronomical Twilight 5:58 AM EST 7:02 PM EST
Moon 6:15 AM EST (1/1) 4:31 PM EST (1/1)
Length of Visible Light 11h 05m
Length of Day
10h 13m
Waning Crescent, 2% of the Moon is Illuminated
Jan 1
Waning Crescent
Jan 2
New
Jan 10
First Quarter
Jan 18
Full
Jan 25
Last Quarter

Hourly Weather History & Observations

Time (EST) Temp. Dew Point Humidity Pressure Visibility Wind Dir Wind Speed Gust Speed Precip Events Conditions
12:24 AM 60.8 °F 59.0 °F 94% 29.80 in 10.0 mi SSE 12.7 mph - 0.01 in Rain Light Rain
12:56 AM 61.0 °F 60.1 °F 97% 29.79 in 10.0 mi SE 11.5 mph - 0.01 in   Overcast
1:18 AM 60.8 °F 60.8 °F 100% 29.79 in 10.0 mi SSE 10.4 mph - N/A   Overcast
1:56 AM 61.0 °F 60.1 °F 97% 29.76 in 10.0 mi SSE 10.4 mph - N/A   Mostly Cloudy
2:56 AM 62.1 °F 61.0 °F 96% 29.79 in 10.0 mi SSW 11.5 mph - 0.00 in Rain Light Rain
3:56 AM 62.1 °F 60.1 °F 93% 29.79 in 10.0 mi SSW 11.5 mph - 0.01 in   Mostly Cloudy
4:41 AM 60.8 °F 60.8 °F 100% 29.78 in 10.0 mi South 10.4 mph - N/A   Scattered Clouds
4:56 AM 61.0 °F 60.1 °F 97% 29.78 in 10.0 mi South 8.1 mph - N/A   Scattered Clouds
5:56 AM 60.1 °F 57.9 °F 93% 29.78 in 10.0 mi SW 5.8 mph - N/A   Partly Cloudy
6:56 AM 59.0 °F 57.9 °F 96% 29.78 in 10.0 mi SSW 8.1 mph - N/A   Scattered Clouds
7:56 AM 59.0 °F 57.9 °F 96% 29.81 in 10.0 mi SSW 9.2 mph - N/A   Partly Cloudy
8:56 AM 62.1 °F 59.0 °F 90% 29.83 in 10.0 mi WSW 10.4 mph - N/A   Partly Cloudy
9:56 AM 64.9 °F 57.9 °F 78% 29.84 in 10.0 mi WSW 13.8 mph - N/A   Partly Cloudy
10:56 AM 68.0 °F 57.9 °F 70% 29.82 in 10.0 mi WSW 20.7 mph 24.2 mph N/A   Scattered Clouds
11:56 AM 70.0 °F 55.9 °F 61% 29.81 in 10.0 mi WSW 20.7 mph 26.5 mph N/A   Mostly Cloudy
12:56 PM 66.9 °F 57.0 °F 70% 29.81 in 10.0 mi West 20.7 mph 29.9 mph N/A   Mostly Cloudy
1:56 PM 68.0 °F 55.9 °F 65% 29.81 in 10.0 mi WSW 16.1 mph 25.3 mph N/A   Mostly Cloudy
2:56 PM 68.0 °F 55.0 °F 63% 29.81 in 10.0 mi West 20.7 mph 26.5 mph N/A   Mostly Cloudy
3:56 PM 66.9 °F 54.0 °F 63% 29.82 in 10.0 mi WSW 17.3 mph 31.1 mph N/A   Mostly Cloudy
4:56 PM 64.9 °F 53.1 °F 65% 29.84 in 10.0 mi West 18.4 mph 27.6 mph N/A   Scattered Clouds
5:56 PM 62.1 °F 53.1 °F 72% 29.86 in 10.0 mi West 10.4 mph - N/A   Scattered Clouds
6:56 PM 60.1 °F 52.0 °F 75% 29.88 in 10.0 mi WSW 12.7 mph - N/A   Partly Cloudy
7:56 PM 57.9 °F 51.1 °F 78% 29.90 in 10.0 mi WSW 8.1 mph - N/A   Clear
8:56 PM 55.9 °F 51.1 °F 84% 29.92 in 10.0 mi WSW 6.9 mph - N/A   Clear
9:56 PM 54.0 °F 50.0 °F 86% 29.94 in 10.0 mi WSW 4.6 mph - N/A   Partly Cloudy
10:56 PM 55.0 °F 51.1 °F 86% 29.95 in 10.0 mi WSW 5.8 mph - N/A   Mostly Cloudy
11:56 PM 55.9 °F 51.1 °F 84% 29.96 in 10.0 mi WSW 9.2 mph - N/A   Mostly Cloudy